TimeMST,TemperatureF,Dew PointF,Humidity,Sea Level PressureIn,VisibilityMPH,Wind Direction,Wind SpeedMPH,Gust SpeedMPH,PrecipitationIn,Events,Conditions,WindDirDegrees,DateUTC
12:53 AM,23.0,12.0,63,29.93,10.0,NW,11.5,-,N/A,,Mostly Cloudy,320,2013-02-26 07:53:00
1:53 AM,23.0,12.0,63,29.93,10.0,NW,10.4,-,N/A,,Overcast,310,2013-02-26 08:53:00
2:53 AM,24.1,12.9,62,29.92,10.0,NW,10.4,-,N/A,,Overcast,310,2013-02-26 09:53:00
3:53 AM,25.0,14.0,63,29.93,10.0,North,9.2,-,N/A,,Overcast,350,2013-02-26 10:53:00
4:53 AM,25.0,17.1,72,29.97,10.0,North,12.7,-,N/A,,Overcast,360,2013-02-26 11:53:00
5:36 AM,24.8,19.4,80,29.89,1.8,North,13.8,-,0.00,Snow,Light Snow,10,2013-02-26 12:36:00
5:45 AM,24.8,19.4,80,29.89,1.0,North,12.7,19.6,0.00,Snow,Light Snow,360,2013-02-26 12:45:00
5:53 AM,24.1,19.9,84,30.00,1.5,NNW,11.5,-,0.00,Snow,Light Snow,340,2013-02-26 12:53:00
6:05 AM,24.8,19.4,80,29.90,2.5,NW,11.5,-,0.00,Snow,Light Snow,310,2013-02-26 13:05:00
6:14 AM,24.8,19.4,80,29.90,3.0,WNW,11.5,-,0.00,Snow,Light Snow,300,2013-02-26 13:14:00
6:53 AM,24.1,18.0,77,30.01,10.0,WNW,6.9,-,0.00,,Overcast,290,2013-02-26 13:53:00
7:53 AM,23.0,19.0,85,30.04,10.0,West,15.0,-,N/A,,Overcast,280,2013-02-26 14:53:00
8:53 AM,24.1,17.1,75,30.07,10.0,WNW,9.2,-,0.00,,Overcast,290,2013-02-26 15:53:00
9:53 AM,28.9,17.1,61,30.07,10.0,NW,15.0,-,N/A,,Overcast,310,2013-02-26 16:53:00
10:53 AM,33.1,14.0,46,30.06,10.0,North,9.2,17.3,N/A,,Mostly Cloudy,350,2013-02-26 17:53:00
11:53 AM,33.1,10.9,40,30.06,10.0,NNE,13.8,-,N/A,,Mostly Cloudy,30,2013-02-26 18:53:00
12:53 PM,33.1,10.9,40,30.07,10.0,NNE,12.7,24.2,N/A,,Overcast,20,2013-02-26 19:53:00
1:53 PM,34.0,10.0,37,30.07,10.0,NNE,15.0,20.7,N/A,,Overcast,20,2013-02-26 20:53:00
2:53 PM,34.0,10.9,38,30.08,10.0,NE,12.7,-,N/A,,Clear,50,2013-02-26 21:53:00
3:53 PM,33.1,12.0,42,30.11,10.0,NE,9.2,-,N/A,,Clear,50,2013-02-26 22:53:00
4:53 PM,32.0,12.0,44,30.14,10.0,NE,12.7,-,N/A,,Clear,40,2013-02-26 23:53:00
5:53 PM,27.0,10.9,51,30.19,10.0,NE,6.9,-,N/A,,Clear,40,2013-02-27 00:53:00
6:53 PM,25.0,12.0,58,30.22,10.0,North,4.6,-,N/A,,Overcast,350,2013-02-27 01:53:00
7:53 PM,27.0,14.0,58,30.24,10.0,WNW,9.2,-,N/A,,Overcast,290,2013-02-27 02:53:00
8:53 PM,26.1,18.0,71,30.26,10.0,West,12.7,-,N/A,,Overcast,270,2013-02-27 03:53:00
9:53 PM,25.0,19.0,78,30.26,10.0,West,16.1,-,N/A,,Overcast,270,2013-02-27 04:53:00
10:53 PM,23.0,18.0,81,30.26,10.0,WNW,8.1,-,N/A,,Scattered Clouds,290,2013-02-27 05:53:00
11:53 PM,23.0,18.0,81,30.27,10.0,WNW,11.5,-,N/A,,Mostly Cloudy,290,2013-02-27 06:53:00